Wind_Speed
12 12 11 10 10 9 8 7 6 6 5 4 3 2 1 1 2 2 3 3 4 4 5 5 5 5 5 4 4 3 3 3 2 2 2 2 3 3 4 4 4 5 5
12 11 11 10 10 9 8 7 7 6 5 4 4 3 2 2 2 2 2 2 3 4 4 5 5 4 4 4 4 4 3 4 3 3 2 2 2 2 3 4 5 5 5
12 11 12 11 10 9 8 8 7 7 6 5 5 4 3 3 3 2 2 2 2 3 4 4 4 4 4 4 4 4 3 3 3 2 2 2 2 2 2 3 4 5 5
13 12 12 11 11 10 9 8 7 7 6 6 6 5 4 4 3 3 2 2 2 3 3 4 4 4 4 3 3 3 3 2 2 2 2 1 1 1 1 2 3 4 4
13 13 12 11 11 10 9 8 8 7 7 7 6 5 5 4 4 4 3 3 2 3 3 4 4 4 4 3 2 2 2 2 1 1 1 1 1 1 0 1 3 3 3
13 13 12 11 11 11 10 9 9 8 8 7 7 6 6 5 5 4 3 3 3 3 3 4 4 4 4 4 3 2 2 2 1 2 1 1 1 1 1 1 2 3 3
12 12 12 11 11 11 11 10 10 9 9 8 8 7 7 6 6 5 4 4 4 3 3 4 4 4 5 4 4 4 3 3 3 3 3 2 2 1 2 2 3 3 4
11 11 11 12 12 11 11 11 11 10 10 9 9 9 8 8 7 6 6 5 4 4 4 4 4 5 5 5 5 5 4 4 4 3 3 3 2 2 2 3 4 4 5
11 11 11 12 12 12 11 11 11 11 11 11 11 10 10 8 8 7 7 6 6 6 5 5 5 6 7 6 6 6 5 5 4 4 4 4 4 4 4 4 5 6 6
11 11 12 12 12 12 11 11 11 11 12 12 11 10 10 9 9 8 8 7 7 7 7 7 7 7 7 8 7 7 6 6 5 5 6 6 5 6 6 6 6 6 7
11 11 12 11 11 11 11 11 11 11 11 12 11 10 10 10 9 9 9 9 8 8 8 8 8 8 8 8 8 7 7 7 7 7 7 7 7 7 7 7 8 8 8
10 11 12 11 11 11 11 11 11 10 10 10 10 10 10 9 10 9 10 10 10 10 9 9 9 9 9 9 9 9 8 8 8 8 8 8 8 8 8 9 9 10 10
9 10 11 11 11 11 11 10 10 10 10 10 11 11 11 10 10 10 10 10 11 11 11 10 10 10 9 9 9 9 9 9 10 10 10 10 10 10 10 11 11 12 12
9 10 11 12 12 11 11 11 10 11 11 11 11 11 11 11 11 11 11 11 12 12 12 12 12 12 11 11 11 10 10 11 11 12 12 12 12 12 13 13 14 14 15
9 11 11 12 12 11 11 11 11 11 11 12 12 13 12 12 13 13 13 13 13 13 13 13 13 13 13 13 12 12 12 12 13 13 14 14 14 14 15 16 16 17 18
9 10 11 13 13 12 12 12 12 12 13 14 14 13 13 13 13 13 14 14 14 14 14 14 14 14 14 13 13 14 14 14 15 15 16 16 16 17 18 18 19 20 20
11 11 12 12 13 13 13 13 13 14 14 14 14 14 14 13 14 14 15 15 15 15 15 15 15 15 15 15 15 15 15 16 16 17 18 18 19 20 20 21 21 22 23
12 13 13 13 14 15 15 15 14 14 15 15 15 15 15 15 15 15 16 16 16 16 16 16 16 16 16 16 16 17 17 18 18 19 20 20 21 22 23 23 24 24 25
12 13 13 14 14 15 16 16 15 15 16 16 16 16 16 16 16 17 17 17 17 17 17 16 17 17 18 18 19 19 20 20 21 22 22 23 24 25 26 26 27 27 28
13 13 13 13 14 15 17 17 17 17 17 17 17 17 17 18 18 18 18 18 18 17 17 17 18 19 20 20 21 22 22 23 24 25 26 27 28 28 29 29 30 30 30
14 14 14 14 14 14 15 16 17 17 18 18 18 18 18 18 19 20 19 19 19 19 19 19 20 21 21 22 23 24 25 25 26 27 28 29 30 31 31 32 33 33 34
15 15 15 15 16 16 16 17 17 17 17 17 18 18 19 20 20 21 21 20 20 21 21 22 22 23 23 24 25 26 27 28 29 29 30 31 32 32 33 34 35 36 37
16 16 17 17 17 18 18 18 18 18 18 18 19 19 20 20 20 20 20 21 22 23 23 23 24 24 25 26 28 28 29 30 31 32 33 34 34 35 36 37 38 39 40
18 18 18 18 18 18 18 19 18 18 19 19 20 21 21 21 21 21 22 23 23 24 25 25 26 27 28 29 30 31 31 32 33 34 35 36 37 38 39 40 41 41 42
19 19 19 19 19 19 19 19 19 20 20 21 21 22 22 22 22 23 24 24 25 26 27 28 29 29 30 31 32 33 34 34 35 36 37 38 39 40 41 42 42 43 44
21 21 20 20 20 20 21 21 21 21 22 22 23 23 24 24 25 25 26 26 27 28 29 29 30 31 31 32 33 34 36 37 38 38 39 40 41 42 43 43 44 46 47
Wind_Direction
207 208 207 207 208 206 206 208 211 213 216 219 226 229 253 302 333 357 6 20 27 28 28 27 31 39 43 45 48 57 68 74 81 101 119 127 140 159 172 176 178 179 181
203 204 205 204 204 204 207 207 212 219 225 229 231 227 245 279 308 332 348 7 21 27 27 26 31 38 43 46 47 52 64 71 77 88 102 108 123 156 175 181 184 184 186
203 204 204 207 207 208 211 213 216 222 231 234 231 230 246 267 285 297 314 331 354 15 23 25 29 31 32 38 40 41 53 63 68 72 71 76 95 107 155 178 187 191 195
205 208 208 211 210 213 214 217 221 229 234 237 234 236 247 254 266 281 290 303 328 348 359 6 11 12 14 18 21 26 33 40 40 39 39 46 66 84 115 171 184 192 198
206 209 210 213 216 218 218 221 228 232 235 242 237 238 246 252 261 271 275 283 303 320 334 345 352 354 357 353 351 358 1 1 7 9 19 22 18 5 309 193 201 203 208
210 213 214 217 221 222 224 229 231 235 239 246 241 240 245 250 255 263 267 277 291 300 313 322 331 335 335 334 334 331 327 325 327 324 332 344 341 322 277 224 218 220 226
213 216 217 219 225 228 231 236 239 240 242 246 243 242 245 249 251 256 262 270 282 291 299 306 314 324 323 317 312 309 299 290 296 298 304 309 314 299 279 261 250 246 247
216 216 221 224 227 231 235 240 243 242 243 245 244 245 246 247 250 257 259 263 269 278 284 294 304 312 316 312 307 297 295 290 291 290 293 296 289 278 281 272 262 261 266
218 222 227 229 230 234 238 240 241 241 243 245 245 248 247 247 250 257 257 260 261 268 277 283 295 302 304 301 295 291 289 285 281 280 285 284 282 277 276 275 271 270 271
223 225 226 230 232 233 239 241 242 243 245 246 246 248 248 248 252 256 260 264 266 268 272 280 291 294 295 294 289 287 283 277 275 274 273 276 280 280 278 276 279 280 278
222 223 226 230 232 234 236 241 244 245 244 245 246 249 251 253 255 258 260 263 266 268 272 278 283 288 292 289 287 283 279 273 271 275 276 276 278 281 280 281 281 283 285
225 226 227 232 238 240 238 244 247 245 247 245 246 247 249 254 258 261 263 264 266 269 272 277 280 283 287 286 282 279 277 275 276 280 280 281 283 284 283 285 287 286 289
225 228 229 233 238 241 242 245 245 247 247 246 246 247 249 252 257 262 265 266 268 270 271 272 277 281 281 280 278 278 275 275 278 278 278 277 278 281 282 283 285 288 289
228 231 236 238 240 242 244 244 246 250 251 249 250 251 252 254 257 261 266 269 271 272 271 271 273 275 277 276 273 273 275 276 277 278 278 278 277 279 282 284 286 287 287
236 236 240 243 243 243 244 246 249 253 255 256 258 255 255 257 260 263 266 269 272 272 271 272 271 272 273 273 273 273 273 276 278 280 281 279 278 280 283 285 286 288 288
243 242 245 245 244 244 246 250 252 256 259 262 262 258 260 262 264 266 266 270 273 272 272 272 271 270 270 271 272 272 274 277 279 280 281 280 280 281 283 285 286 288 290
249 249 251 247 243 243 248 254 256 260 263 265 263 261 261 264 266 267 269 273 275 274 273 272 271 269 268 269 271 272 275 277 278 280 280 281 281 282 285 285 286 287 288
254 253 254 254 250 249 251 255 259 261 264 266 266 266 264 266 269 270 270 272 275 274 273 274 272 271 270 270 271 273 275 277 278 279 281 281 281 283 284 285 286 287 288
257 256 257 257 256 255 255 258 261 264 267 269 269 268 267 269 271 273 273 273 273 274 273 273 273 273 272 272 272 274 275 277 280 281 281 281 282 283 283 285 286 286 288
257 256 257 257 258 260 259 260 263 265 269 271 270 269 270 271 272 273 274 275 274 273 274 275 275 275 275 275 275 275 276 278 280 281 281 282 282 283 284 284 285 286 287
260 260 260 259 261 265 264 263 264 267 270 271 271 271 272 273 273 274 274 274 274 273 274 275 276 277 278 278 278 278 279 280 281 282 282 283 283 283 283 284 285 286 287
261 261 262 264 265 266 265 265 266 268 270 272 273 274 274 275 275 275 275 275 275 275 275 276 277 278 280 281 281 280 280 281 282 283 283 283 284 284 284 284 285 286 287
264 263 263 265 267 267 266 266 268 268 268 270 272 273 277 276 275 275 276 277 277 277 276 277 279 280 282 283 283 282 283 283 283 284 284 284 284 285 285 286 286 286 287
265 265 265 265 267 268 268 268 269 269 270 272 273 274 276 277 276 277 279 281 281 279 277 279 281 282 283 283 283 284 284 285 285 285 285 285 286 286 287 287 287 287 287
265 265 266 267 267 268 270 271 271 272 275 277 277 277 278 278 280 282 283 283 283 284 283 282 282 283 284 283 283 284 284 285 286 286 287 287 288 288 288 288 288 287 287
264 266 267 268 268 270 272 273 273 274 276 278 279 279 279 280 281 282 283 283 283 284 284 283 283 284 284 284 285 286 286 286 287 288 288 288 288 288 288 288 288 288 288
Height
5879 5881 5883 5885 5886 5888 5889 5890 5890 5891 5891 5891 5891 5891 5891 5890 5890 5888 5888 5887 5885 5884 5883 5881 5880 5878 5877 5876 5875 5874 5873 5873 5873 5872 5872 5872 5871 5871 5872 5872 5872 5872 5872
5878 5880 5882 5884 5885 5886 5888 5888 5889 5890 5890 5890 5890 5890 5890 5890 5889 5888 5887 5886 5885 5884 5883 5882 5880 5879 5878 5876 5875 5875 5874 5874 5873 5873 5873 5873 5873 5872 5872 5872 5872 5872 5873
5877 5879 5881 5883 5884 5885 5886 5887 5888 5889 5889 5889 5889 5890 5890 5889 5889 5888 5887 5886 5885 5884 5883 5882 5881 5879 5878 5877 5876 5875 5875 5874 5874 5873 5873 5873 5873 5873 5873 5872 5872 5873 5873
5875 5877 5880 5881 5883 5884 5885 5886 5887 5888 5888 5888 5889 5889 5889 5888 5888 5887 5886 5886 5885 5884 5883 5882 5881 5880 5878 5877 5876 5876 5875 5875 5874 5874 5874 5874 5873 5873 5873 5873 5873 5873 5873
5874 5876 5878 5880 5881 5883 5884 5885 5886 5886 5887 5887 5888 5888 5888 5887 5887 5886 5886 5885 5884 5883 5882 5882 5881 5880 5879 5878 5877 5876 5875 5875 5875 5874 5874 5874 5873 5873 5873 5873 5873 5873 5873
5873 5875 5876 5878 5880 5881 5882 5884 5884 5885 5886 5886 5886 5886 5886 5886 5886 5886 5885 5884 5884 5883 5882 5881 5880 5879 5878 5877 5877 5876 5875 5875 5875 5874 5874 5874 5874 5873 5873 5873 5873 5873 5873
5871 5873 5875 5877 5878 5880 5881 5882 5883 5883 5884 5884 5884 5884 5885 5884 5885 5884 5884 5883 5883 5882 5881 5880 5880 5879 5878 5877 5876 5875 5875 5874 5874 5874 5874 5874 5874 5873 5873 5873 5872 5872 5872
5870 5872 5873 5875 5876 5878 5879 5880 5881 5881 5882 5882 5882 5882 5883 5883 5883 5883 5883 5882 5882 5881 5880 5879 5879 5878 5877 5876 5875 5874 5873 5873 5873 5873 5873 5873 5873 5873 5872 5872 5872 5872 5871
5868 5870 5872 5873 5874 5876 5877 5877 5878 5879 5880 5880 5880 5880 5880 5881 5881 5881 5881 5880 5880 5880 5879 5878 5877 5876 5875 5874 5873 5872 5872 5872 5872 5872 5872 5872 5872 5871 5871 5871 5871 5871 5870
5867 5868 5869 5871 5872 5873 5874 5875 5876 5877 5877 5877 5878 5878 5878 5878 5879 5879 5879 5878 5878 5878 5877 5876 5875 5874 5873 5872 5871 5870 5870 5870 5870 5871 5871 5871 5870 5870 5870 5869 5869 5869 5868
5865 5866 5867 5869 5870 5871 5872 5873 5873 5874 5875 5875 5875 5876 5876 5876 5876 5876 5876 5876 5876 5875 5875 5874 5873 5872 5871 5870 5869 5868 5868 5868 5868 5869 5869 5869 5869 5868 5868 5867 5867 5866 5866
5863 5864 5865 5867 5868 5868 5869 5870 5871 5872 5872 5873 5873 5873 5874 5874 5874 5874 5873 5873 5873 5872 5872 5871 5870 5869 5868 5867 5867 5866 5866 5866 5866 5867 5867 5867 5867 5866 5866 5865 5865 5864 5863
5861 5862 5863 5864 5865 5866 5867 5868 5868 5869 5870 5870 5871 5871 5871 5871 5871 5871 5871 5870 5870 5869 5868 5868 5867 5866 5865 5865 5864 5864 5864 5864 5864 5864 5864 5864 5864 5864 5863 5863 5862 5861 5860
5859 5860 5861 5862 5863 5864 5865 5865 5866 5867 5867 5868 5868 5868 5868 5868 5868 5868 5868 5867 5866 5866 5865 5864 5863 5863 5862 5862 5862 5862 5862 5862 5862 5862 5861 5861 5861 5861 5860 5859 5858 5857 5856
5857 5858 5859 5860 5861 5861 5862 5863 5863 5864 5864 5865 5865 5865 5865 5865 5865 5864 5864 5863 5863 5862 5861 5860 5860 5859 5859 5858 5858 5859 5859 5859 5858 5858 5858 5858 5857 5857 5856 5855 5854 5853 5852
5854 5855 5856 5857 5858 5859 5859 5860 5860 5861 5861 5861 5861 5861 5861 5861 5861 5861 5860 5860 5859 5858 5857 5856 5856 5855 5855 5855 5855 5855 5855 5855 5855 5854 5854 5853 5853 5852 5851 5850 5849 5848 5846
5852 5852 5853 5853 5854 5855 5856 5857 5857 5857 5857 5858 5858 5857 5857 5857 5857 5857 5856 5855 5855 5854 5853 5852 5852 5851 5851 5851 5851 5851 5851 5851 5850 5850 5849 5849 5848 5847 5846 5845 5843 5842 5840
5848 5849 5850 5850 5851 5852 5853 5853 5853 5854 5854 5854 5854 5854 5853 5853 5853 5852 5852 5851 5850 5849 5849 5848 5848 5847 5847 5847 5847 5847 5846 5846 5845 5845 5844 5843 5842 5841 5840 5839 5837 5836 5834
5845 5846 5846 5847 5847 5848 5848 5849 5849 5849 5849 5849 5849 5849 5849 5849 5848 5848 5847 5846 5846 5845 5844 5844 5843 5843 5843 5842 5842 5842 5841 5841 5840 5839 5838 5837 5836 5835 5833 5832 5830 5828 5826
5841 5842 5842 5843 5843 5844 5844 5844 5845 5845 5845 5845 5844 5844 5844 5844 5843 5843 5842 5842 5841 5840 5840 5839 5838 5838 5837 5837 5837 5836 5835 5834 5833 5832 5831 5830 5829 5827 5825 5823 5822 5820 5818
5838 5838 5838 5839 5839 5839 5840 5840 5840 5840 5840 5840 5840 5839 5839 5838 5838 5837 5837 5837 5836 5835 5835 5834 5833 5833 5832 5831 5830 5829 5828 5827 5826 5825 5823 5822 5820 5818 5816 5814 5812 5810 5808
5833 5834 5834 5835 5835 5835 5835 5835 5835 5835 5835 5835 5835 5834 5834 5833 5833 5832 5831 5831 5830 5829 5829 5828 5827 5826 5825 5824 5823 5822 5821 5819 5818 5816 5815 5813 5811 5809 5807 5804 5802 5799 5797
5829 5829 5830 5830 5830 5830 5830 5830 5830 5830 5830 5830 5829 5829 5828 5827 5827 5826 5825 5825 5824 5823 5822 5822 5821 5819 5818 5817 5816 5814 5813 5811 5809 5807 5805 5803 5801 5799 5796 5794 5791 5788 5785
5824 5824 5824 5825 5825 5825 5825 5825 5825 5825 5824 5824 5824 5823 5822 5821 5820 5819 5819 5818 5817 5816 5815 5814 5813 5812 5810 5809 5807 5805 5803 5801 5799 5797 5795 5793 5790 5787 5785 5782 5779 5776 5773
5818 5818 5819 5819 5819 5819 5819 5819 5819 5818 5818 5818 5817 5816 5815 5815 5814 5813 5812 5811 5810 5808 5807 5806 5805 5803 5802 5800 5798 5795 5794 5791 5789 5786 5784 5782 5779 5776 5772 5769 5766 5763 5760
5812 5812 5813 5813 5813 5813 5813 5812 5812 5812 5811 5811 5810 5809 5808 5807 5807 5805 5804 5803 5802 5800 5799 5797 5795 5794 5792 5789 5787 5785 5783 5780 5777 5775 5772 5769 5766 5763 5759 5756 5753 5749 5746